Tallevast, FL

2:31 PM EST on December 05, 2016 (GMT -0500)
Sarasota-bradenton

Weather History for KSRQ - September, 2011

Change the Weather History Date:

Tuesday, September 27, 2011

  Actual Average Record
Temperature  
Mean Temperature 82 °F 80 °F  
Max Temperature 89 °F 88 °F 94 °F (1925)
Min Temperature 75 °F 73 °F 59 °F (1991)
Degree Days  
Heating Degree Days 0 0  
Month to date heating degree days 0 0  
Since 1 July heating degree days 0 0  
Cooling Degree Days 17 15  
Month to date cooling degree days 471 448  
Year to date cooling degree days 2986 2745  
Growing Degree Days 32 (Base 50)    
Moisture  
Dew Point 74 °F    
Average Humidity 84    
Maximum Humidity 94    
Minimum Humidity 63    
Precipitation  
Precipitation 0.06 in 0.14 in 7.08 in (1997)
Month to date precipitation 5.90 6.67  
Year to date precipitation 37.57 45.00  
Sea Level Pressure  
Sea Level Pressure 29.92 in    
Wind  
Wind Speed 6 mph (East)    
Max Wind Speed 17 mph    
Max Gust Speed 22 mph    
Visibility 10 miles    
Events Rain    
T = Trace of Precipitation, MM = Missing Value Source: NWS Daily Summary

Daily Weather History Graph

Daily Weather History Graph

Search for Another Location

Airport or City:

Trip Planner

Search our weather history database for the weather conditions in past years. The results will help you decide how hot, cold, wet, or windy it might be!

Date:

Astronomy

Sep. 27, 2011 Rise Set
Actual Time 7:20 AM EDT 7:21 PM EDT
Civil Twilight 6:57 AM EDT 7:44 PM EDT
Nautical Twilight 6:30 AM EDT 8:11 PM EDT
Astronomical Twilight 6:03 AM EDT 8:38 PM EDT
Moon 7:26 AM EDT (9/27) 7:21 PM EDT (9/27)
Length of Visible Light 12h 46m
Length of Day
12h 00m
New Moon, 0% of the Moon is Illuminated
Sep 27
New Moon
Oct 3
First Quarter
Oct 11
Full
Oct 19
Last Quarter
Oct 26
New

Hourly Weather History & Observations

Time (EDT) Temp. Heat Index Dew Point Humidity Pressure Visibility Wind Dir Wind Speed Gust Speed Precip Events Conditions
12:53 AM 75.9 °F - 73.0 °F 91% 29.94 in 10.0 mi ESE 6.9 mph - N/A   Clear
1:53 AM 75.9 °F - 73.9 °F 94% 29.93 in 10.0 mi SE 3.5 mph - N/A   Mostly Cloudy
2:53 AM 77.0 °F - 73.9 °F 90% 29.92 in 10.0 mi Calm Calm - 0.00 in   Overcast
3:07 AM 77.0 °F - 73.4 °F 89% 29.93 in 10.0 mi NNE 4.6 mph - N/A   Overcast
3:53 AM 77.0 °F - 73.9 °F 90% 29.90 in 10.0 mi SSE 4.6 mph - 0.00 in Rain Light Rain
4:09 AM 77.0 °F - 73.4 °F 89% 29.90 in 10.0 mi Calm Calm - 0.00 in Rain Light Rain
4:18 AM 77.0 °F - 73.4 °F 89% 29.90 in 10.0 mi Calm Calm - 0.00 in Rain Light Rain
4:53 AM 75.9 °F - 73.9 °F 94% 29.90 in 10.0 mi ENE 3.5 mph - 0.00 in   Overcast
5:09 AM 75.2 °F - 73.4 °F 94% 29.90 in 10.0 mi Calm Calm - N/A   Mostly Cloudy
5:36 AM 75.2 °F - 73.4 °F 94% 29.89 in 10.0 mi East 3.5 mph - N/A   Overcast
5:53 AM 75.9 °F - 73.0 °F 91% 29.90 in 10.0 mi ESE 3.5 mph - N/A   Overcast
6:30 AM 75.2 °F - 73.4 °F 94% 29.91 in 10.0 mi SE 4.6 mph - N/A   Overcast
6:53 AM 75.0 °F - 73.9 °F 96% 29.92 in 10.0 mi ESE 3.5 mph - N/A   Mostly Cloudy
7:00 AM 75.2 °F - 73.4 °F 94% 29.92 in 10.0 mi ESE 3.5 mph - N/A   Mostly Cloudy
7:32 AM 75.2 °F - 73.4 °F 94% 29.92 in 10.0 mi ESE 5.8 mph - N/A   Mostly Cloudy
7:53 AM 75.9 °F - 73.9 °F 94% 29.93 in 10.0 mi East 4.6 mph - N/A   Scattered Clouds
8:53 AM 78.1 °F - 75.0 °F 90% 29.94 in 10.0 mi East 5.8 mph - 0.00 in Rain Light Rain
9:04 AM 78.8 °F - 75.2 °F 89% 29.94 in 3.0 mi Calm Calm - 0.04 in Rain Rain
9:11 AM 78.8 °F - 75.2 °F 89% 29.94 in 2.5 mi East 4.6 mph - 0.06 in Rain Rain
9:18 AM 78.8 °F - 75.2 °F 89% 29.94 in 9.0 mi East 5.8 mph - 0.06 in Rain Light Rain
9:30 AM 78.8 °F - 75.2 °F 89% 29.94 in 10.0 mi East 6.9 mph - 0.06 in   Scattered Clouds
9:53 AM 80.1 °F 85.4 °F 75.9 °F 87% 29.94 in 10.0 mi ESE 6.9 mph - 0.06 in   Mostly Cloudy
10:24 AM 82.4 °F 89.5 °F 75.2 °F 79% 29.94 in 10.0 mi ESE 5.8 mph - N/A   Mostly Cloudy
10:53 AM 84.9 °F 94.1 °F 75.9 °F 74% 29.95 in 10.0 mi SE 6.9 mph - N/A   Mostly Cloudy
11:53 AM 84.0 °F 91.2 °F 73.9 °F 72% 29.96 in 10.0 mi West 5.8 mph - N/A   Mostly Cloudy
12:53 PM 86.0 °F 95.1 °F 75.0 °F 70% 29.96 in 10.0 mi Variable 4.6 mph - N/A   Clear
1:53 PM 87.1 °F 97.3 °F 75.9 °F 69% 29.94 in 10.0 mi West 8.1 mph - N/A   Partly Cloudy
2:53 PM 88.0 °F 98.5 °F 75.9 °F 67% 29.91 in 10.0 mi WNW 12.7 mph - N/A   Mostly Cloudy
3:53 PM 87.1 °F 95.4 °F 73.9 °F 65% 29.90 in 10.0 mi WNW 11.5 mph - N/A   Mostly Cloudy
4:53 PM 84.9 °F 91.4 °F 73.0 °F 67% 29.90 in 10.0 mi NNW 13.8 mph - N/A   Clear
5:53 PM 87.1 °F 95.4 °F 73.9 °F 65% 29.89 in 10.0 mi NNW 13.8 mph 19.6 mph N/A   Scattered Clouds
6:53 PM 84.9 °F 92.1 °F 73.9 °F 69% 29.89 in 10.0 mi North 11.5 mph - N/A   Clear
7:53 PM 82.9 °F 88.8 °F 73.0 °F 72% 29.89 in 10.0 mi NNW 5.8 mph - N/A   Clear
8:53 PM 82.0 °F 87.4 °F 73.0 °F 74% 29.90 in 10.0 mi NNE 4.6 mph - N/A   Clear
9:53 PM 81.0 °F 86.2 °F 73.9 °F 79% 29.91 in 10.0 mi NNE 3.5 mph - N/A   Clear
10:53 PM 78.1 °F - 73.9 °F 87% 29.91 in 10.0 mi Calm Calm - N/A   Clear
11:53 PM 78.1 °F - 73.9 °F 87% 29.91 in 10.0 mi Calm Calm - N/A   Clear